COSMOS 2257

Satellite information

Favourite Embed

Satellite Type and Status

PAYLOADIN ORBIT

Key statistics

Satellite COSMOS 2257 at a glance.

Uptime

11703

Days in orbit

Revolutions

≈ 12.6

Per day

Orbit

LEO

Low Earth Orbit

Inclination

82.6

Latest

Satellite identification and parameters

Extended collection of information and parameters for COSMOS 2257.

Object identification

Identified? True

Debris? False

Object name: COSMOS 2257

International designator: 1993-038F

Object number (NORAD): 22692

Object ID (CCSDS): 22692

Country: COMMONWEALTH OF INDEPENDENT STATES (CIS)

Current information (Y/N): Y

RCS size: MEDIUM

Orbital parameters

Period: 114.082 minutes

Inclination: 82.5783 deg

SMA: 7791.808 km

Apoapsis: 1421.031 km

Periapsis: 1406.315 km

RAAN: 97.7362 deg

Eccentricy: 0.0009443

Argument of periapsis: 53.8293 deg

Mean anomaly: 306.367 deg

Mean motion: 12.62250033 rev/day

Mean motion (dot): 0.00000014 rev/day2

B* drag term: 0.000020847 1/REarth

Two-line elements (TLE)

Creation date: July 9, 2025, 2:22 a.m.

Reference frame: TEME

Reference center: EARTH

Epoch: July 8, 2025, 7:09 p.m. UTC

TLE line 0: 0 COSMOS 2257

TLE line 1: 1 22692U 93038F 25189.79816982 .00000014 00000-0 20847-4 0 9999

TLE line 2: 2 22692 82.5783 97.7362 0009443 53.8293 306.3670 12.62250033476466

Live tracking on map

Real-time ground track for satellite COSMOS 2257.

In-orbit conjunctions

There are no conjunctions computed for COSMOS 2257, at the moment. Check back to stay up to date, as we update our databases every day.

Go to all conjunctions

Associated space launch

Second generation store-dump military communications satellites

COSMOS 2257 was lifted into orbit during the mission ‘Tsiklon-3 | Strela-3 95 to 100’, on board a Tsiklon-3 space rocket.

The launch took place on June 24, 1993, 4:12 a.m. from 32/1.

For more information about the launch, click the button.

Launch to space Tsiklon-3 | Strela-3 95 to 100
Tsiklon-3 | Strela-3 95 to 100

Agency: N/A

Status: Launch Successful

Launch date: June 24, 1993, 4:12 a.m. UTC

Rocket: Tsiklon-3

Launch pad: 32/1

Location: Plesetsk Cosmodrome, Russian Federation

...

Latest news about this satellite

There are no fresh news available about this satellite. Check back as we update our databases every day.


Newsletter sign-up

Weekly statistics, charts and insights to help you stay on top of the space industry.